Regional Weather Roundup
Issued by NWS

Home | Current Version | Previous Version | Text Only | Print | Product List | Glossary Off
Versions: 1 2 3 4 5 6 7 8 9 10 11 12 13 14 15 16 17 18 19 20 21 22 23 24 25 26 27 28 29 30 31 32 33 34 35 36 37 38 39 40 41 42 43 44 45 46 47 48 49 50

000
ASUS44 KMEG 231800
RWRTN
TENNESSEE HOURLY STATE WEATHER ROUNDUP
NATIONAL WEATHER SERVICE MEMPHIS TN
100 PM CDT SUN APR 23 2017

TNZ002-004-019-021-049-052-054-088>092-231900-
WEST TENNESSEE

CITY           SKY/WX    TMP DP  RH WIND       PRES   REMARKS
MEMPHIS INTL   CLOUDY    59  46  62 N17G24    29.93F
NWS MEMPHIS      N/A     54 N/A N/A MISG        N/A
JACKSON        RAIN      49  48  97 N15       29.93F
DYERSBURG      CLOUDY    51  48  89 VRB5      29.95F
PARIS          CLOUDY    48  43  81 N9        29.92S
$$

TNZ008-025-027-028-033-062-065-066-231900-
NORTH MIDDLE TENNESSEE

CITY           SKY/WX    TMP DP  RH WIND       PRES   REMARKS
NASHVILLE      RAIN      51  49  92 N13       29.87R FOG
CLARKSVILLE    LGT RAIN  50  44  80 N16       29.91F
SMYRNA         LGT RAIN  52  51  97 N13       29.86R
CROSSVILLE     LGT RAIN  54  52  93 N6        29.82S
$$

TNZ061-075-076-078-094-096-097-231900-
SOUTH MIDDLE TENNESSEE

CITY           SKY/WX    TMP DP  RH WIND       PRES   REMARKS
COLUMBIA       CLOUDY   N/A N/A N/A N6        29.83S
SHELBYVILLE    CLOUDY    55  55 100 N8        29.83S
$$

TNZ017-018-042-046-047-231900-
NORTHEAST TENNESSEE

CITY           SKY/WX    TMP DP  RH WIND       PRES   REMARKS
TRI CITIES     RAIN      52  50  93 VRB5      29.91F FOG
$$

TNZ012-013-036-069-073-074-231900-
CENTRAL EAST TENNESSEE

CITY           SKY/WX    TMP DP  RH WIND       PRES   REMARKS
KNOXVILLE      LGT RAIN  60  57  89 E9        29.76F FOG
OAK RIDGE      HVY RAIN  57  54  89 VRB3      29.81R VSB 3/4
GATLINBURG     CLOUDY    59  57  94 NE7       29.78F
$$

TNZ083-085-099-231900-
SOUTHEAST TENNESSEE

CITY           SKY/WX    TMP DP  RH WIND       PRES   REMARKS
CHATTANOOGA    RAIN      61  60  97 S6        29.78F FOG
$$

SKY/WX REPORTED AS FAIR MEANS FEW OR NO CLOUDS BELOW
12 THOUSAND FEET.




USA.gov is the U.S. government's official web portal to all federal, state and local government web resources and services.